Location: Pontbriand
(46.1542°N, 71.2542°W)
Time: 07:01:36
(UTC+00:00)

Envisat - Visible Passes

Search period start: 30 November 2021 00:00
Search period end: 10 December 2021 00:00
Orbit: 764 x 766 km, 98.2° (Epoch: 29 November)

Date Brightness Start Highest point End Pass type
(mag) Time Alt. Az. Time Alt. Az. Time Alt. Az.
30 Nov 3.2 09:43:04 10° NNE 09:48:09 69° ESE 09:53:13 10° S visible
30 Nov 4.3 11:23:14 10° NNW 11:26:38 18° WNW 11:30:01 10° WSW visible
01 Dec 4.6 09:06:33 10° NNE 09:11:08 33° E 09:15:41 10° SSE visible
01 Dec 3.5 10:45:34 10° N 10:50:09 35° WNW 10:54:43 10° SW visible
01 Dec 5.8 22:03:56 10° SW 22:07:40 20° W 22:11:25 10° NW visible
02 Dec 5.7 08:30:53 10° NE 08:33:54 16° E 08:36:56 10° SE visible
02 Dec 2.9 10:08:22 10° N 10:13:27 72° WNW 10:18:31 10° SSW visible
02 Dec 4.5 21:25:42 10° S 21:30:30 42° W 21:35:21 10° NNW visible
03 Dec 3.6 09:31:34 10° NNE 09:36:34 55° E 09:41:32 10° S visible
03 Dec 4.1 11:11:22 10° NNW 11:15:13 22° WNW 11:19:03 10° WSW visible
03 Dec 6.2 22:31:28 10° WSW 22:33:18 12° W 22:35:09 10° WNW visible
04 Dec 5.0 08:55:15 10° NE 08:59:30 26° E 09:03:43 10° SSE visible
04 Dec 3.3 10:33:52 10° N 10:38:40 43° WNW 10:43:26 10° SW visible
04 Dec 5.5 21:51:50 10° SSW 21:56:00 25° W 22:00:12 10° NW visible
05 Dec 6.0 08:20:08 10° ENE 08:22:12 12° E 08:24:15 10° ESE visible
05 Dec 2.9 09:56:48 10° NNE 10:01:55 88° WNW 10:07:00 10° SSW visible
05 Dec 4.6 11:37:36 10° NNW 11:40:11 14° WNW 11:42:45 10° W visible
06 Dec 4.1 09:20:06 10° NNE 09:24:58 44° E 09:29:48 10° S visible
06 Dec 3.9 10:59:33 10° N 11:03:47 27° WNW 11:07:59 10° WSW visible
06 Dec 6.0 22:18:41 10° WSW 22:21:35 15° W 22:24:30 10° NW visible
07 Dec 5.3 08:44:00 10° NE 08:47:50 21° E 08:51:38 10° SE visible
07 Dec 3.0 10:22:12 10° N 10:27:10 53° WNW 10:32:05 10° SSW visible
07 Dec 5.1 21:39:51 10° SSW 21:44:21 32° W 21:48:53 10° NNW visible
08 Dec 3.1 09:45:15 10° NNE 09:50:21 74° ESE 09:55:26 10° S visible
08 Dec 4.4 11:25:33 10° NNW 11:28:47 17° WNW 11:32:00 10° W visible
09 Dec 4.5 09:08:42 10° NNE 09:13:21 35° E 09:17:58 10° SSE visible
09 Dec 3.6 10:47:48 10° N 10:52:19 33° WNW 10:56:48 10° SW visible
09 Dec 5.8 22:06:19 10° SW 22:09:54 19° W 22:13:29 10° NW visible
